McGrath, AK

5:29 PM AKDT on April 19, 2018 (GMT -0800)
McGrath

Weather History for PAMC - January, 2013

Change the Weather History Date:

Wednesday, January 23, 2013

  Actual Average Record
Temperature  
Mean Temperature 2 °F -6 °F  
Max Temperature 7 °F 3 °F 41 °F (2000)
Min Temperature -3 °F -15 °F -61 °F (1989)
Degree Days  
Heating Degree Days 63 71  
Month to date heating degree days 1338 1653  
Since 1 July heating degree days 8099 7890  
Cooling Degree Days 0 0  
Month to date cooling degree days 0 0  
Year to date cooling degree days 0 0  
Moisture  
Dew Point -3 °F    
Average Humidity 0    
Maximum Humidity 0    
Minimum Humidity 0    
Precipitation  
Precipitation T in 0.03 in 0.35 in (2000)
Month to date precipitation 2.04 0.82  
Year to date precipitation 2.04 0.82  
Snow  
Snow T in 0.40 in 4.60 in (1999)
Month to date snowfall 16.0 11.8  
Since 1 July snowfall 49.7 63.0  
Snow Depth 35.00 in    
Sea Level Pressure  
Sea Level Pressure 29.61 in    
Wind  
Wind Speed 4 mph (NNE)    
Max Wind Speed 12 mph    
Max Gust Speed 14 mph    
Visibility 10 miles    
Events Snow    
T = Trace of Precipitation, MM = Missing Value Source: NWS Daily Summary

Daily Weather History Graph

Daily Weather History Graph

Search for Another Location

Airport or City:

Astronomy

Jan. 23, 2013 Rise Set
Actual Time 10:16 AM AKST 4:52 PM AKST
Civil Twilight 9:19 AM AKST 5:50 PM AKST
Nautical Twilight 8:20 AM AKST 6:49 PM AKST
Astronomical Twilight 7:26 AM AKST 7:43 PM AKST
Moon 1:51 PM AKST (1/23) 7:58 AM AKST (1/23)
Length of Visible Light 8h 31m
Length of Day
6h 36m
Waxing Gibbous, 90% of the Moon is Illuminated
Jan 23
Waxing Gibbous
Jan 26
Full
Feb 3
Last Quarter
Feb 9
New
Feb 17
First Quarter

Hourly Weather History & Observations

Time (AKST) Temp. Windchill Dew Point Humidity Pressure Visibility Wind Dir Wind Speed Gust Speed Precip Events Conditions
12:07 AM -2.2 °F - -7.6 °F 78% 29.64 in 10.0 mi Calm Calm - N/A   Mostly Cloudy
12:53 AM -2.0 °F - -7.1 °F 79% 29.67 in 10.0 mi Calm Calm - N/A   Mostly Cloudy
1:53 AM -0.9 °F - -6.0 °F 79% 29.66 in 10.0 mi Calm Calm - N/A   Overcast
3:53 AM -0.0 °F -7.9 °F -4.0 °F 83% 29.64 in 10.0 mi NW 3.5 mph - N/A   Overcast
4:53 AM 1.0 °F - -2.9 °F 83% 29.64 in 10.0 mi Calm Calm - N/A   Overcast
5:53 AM 1.9 °F - -2.0 °F 83% 29.63 in 10.0 mi Calm Calm - 0.00 in Snow Light Snow
6:53 AM 3.0 °F - -2.0 °F 80% 29.62 in 10.0 mi Calm Calm - 0.00 in   Overcast
7:53 AM 3.9 °F - -0.9 °F 80% 29.61 in 10.0 mi Calm Calm - N/A   Overcast
8:53 AM 3.0 °F - -0.9 °F 84% 29.61 in 10.0 mi Calm Calm - N/A   Overcast
9:53 AM 3.9 °F - -0.9 °F 80% 29.60 in 10.0 mi Calm Calm - N/A   Mostly Cloudy
10:53 AM 3.0 °F - -2.0 °F 80% 29.61 in 10.0 mi Calm Calm - N/A   Mostly Cloudy
11:53 AM 5.0 °F -4.1 °F -0.9 °F 76% 29.60 in 10.0 mi North 4.6 mph - N/A   Mostly Cloudy
12:53 PM 6.1 °F -5.6 °F -0.0 °F 76% 29.60 in 10.0 mi North 6.9 mph - N/A   Mostly Cloudy
1:53 PM 6.1 °F -4.3 °F -0.9 °F 73% 29.59 in 10.0 mi North 5.8 mph - N/A   Mostly Cloudy
2:53 PM 6.1 °F -6.8 °F -2.0 °F 69% 29.59 in 10.0 mi NNE 8.1 mph - N/A   Mostly Cloudy
3:53 PM 5.5 °F -5.0 °F -2.2 °F 70% 29.58 in 10.0 mi NNE 5.8 mph - N/A   Mostly Cloudy
4:53 PM 7.0 °F -4.5 °F -2.0 °F 67% 29.58 in 10.0 mi NNE 6.9 mph - N/A   Clear
5:53 PM 6.1 °F -6.8 °F -2.0 °F 69% 29.59 in 10.0 mi NNE 8.1 mph - N/A   Mostly Cloudy
6:53 PM 6.1 °F -5.6 °F -2.0 °F 69% 29.59 in 10.0 mi NNE 6.9 mph - N/A   Overcast
7:53 PM 6.1 °F -6.8 °F -2.0 °F 69% 29.59 in 10.0 mi NNE 8.1 mph - N/A   Overcast
8:53 PM 3.9 °F -9.4 °F -4.0 °F 70% 29.60 in 10.0 mi NNE 8.1 mph - N/A   Scattered Clouds
9:53 PM 3.0 °F -10.5 °F -5.1 °F 69% 29.61 in 10.0 mi NNE 8.1 mph - N/A   Partly Cloudy
10:53 PM 1.9 °F -9.2 °F -6.0 °F 69% 29.62 in 10.0 mi NNE 5.8 mph - N/A   Mostly Cloudy
11:53 PM 3.9 °F -6.9 °F -5.1 °F 66% 29.62 in 10.0 mi NNE 5.8 mph - N/A   Overcast